Regional Weather Roundup
Issued by NWS

Home | Current Version | Previous Version | Graphics & Text | Print | Product List | Glossary On
Versions: 1 2 3 4 5 6 7 8 9 10 11 12 13 14 15 16 17 18 19 20 21 22 23 24 25 26 27 28 29 30 31 32 33 34 35 36 37 38 39 40 41 42 43 44 45 46 47 48 49 50
000
ASUS45 KPSR 170810
RWRAZ

ARIZONA REGIONAL HOURLY WEATHER ROUNDUP
NATIONAL WEATHER SERVICE PHOENIX AZ
100 AM MST THU APR 17 2014

NOTE: FAIR INDICATES FEW OR NO CLOUDS BELOW 12,000 FEET WITH NO
SIGNIFICANT WEATHER AND/OR OBSTRUCTIONS TO VISIBILITY.

AZZ001>003-036-170900-
NORTHWEST ARIZONA

CITY           SKY/WX    TMP DP  RH WIND       PRES   REMARKS
BULLHEAD CITY  CLEAR     73  23  15 N3        29.74R
KINGMAN        CLEAR     55  13  18 E3        29.89R
$$

AZZ004>008-015-016-018-170900-
NORTH CENTRAL ARIZONA

CITY           SKY/WX    TMP DP  RH WIND       PRES   REMARKS
GRAND CANYON   CLEAR     30  14  51 CALM      30.07R
WILLIAMS       CLEAR     36  16  44 SE10      30.13S WCI  28
PRESCOTT       CLEAR     50  22  33 S9        29.99S
FLAGSTAFF      CLEAR     31  15  52 CALM      30.09R
PAYSON         CLEAR     54  16  22 CALM      30.01S
$$

AZZ009>014-017-170900-
NORTHEAST ARIZONA

CITY           SKY/WX    TMP DP  RH WIND       PRES   REMARKS
WINSLOW        CLEAR     45  22  40 SW3       30.01S
SAINT JOHNS    CLEAR     45  16  31 CALM      30.02R
WINDOW ROCK    CLEAR     30  15  53 CALM      30.06S
SHOW LOW       CLEAR     39  10  30 S3        30.08S
$$

AZZ023-170900-
GREATER PHOENIX AREA

CITY           SKY/WX    TMP DP  RH WIND       PRES   REMARKS
PHOENIX        CLEAR     79  23  12 N7        29.78R
BUCKEYE          N/A     66  18  15 NW6       29.81R
LUKE AFB       NOT AVBL
DEER VALLEY    CLEAR     71  21  15 CALM      29.80R
SCOTTSDALE     CLEAR     73  24  16 CALM      29.83R
MESA-GATEWAY   CLEAR     64  21  19 SE7       29.83S
$$

AZZ027-028-170900-
SOUTHWEST MARICOPA COUNTY AND PINAL COUNTY

CITY           SKY/WX    TMP DP  RH WIND       PRES   REMARKS
CASA GRANDE    CLEAR     68  12  11 CALM      29.83S
$$

AZZ503-504-507>509-170900-
SOUTHEAST ARIZONA

CITY           SKY/WX    TMP DP  RH WIND       PRES   REMARKS
TUCSON         CLEAR     66  20  17 E5        29.92R
DAVIS-MONTHAN  CLEAR     66  24  20 E6        29.91R
NOGALES        CLEAR     55  19  24 E7        29.98S
SIERRA VISTA   CLEAR     63  16  16 SW10G17   29.99S
DOUGLAS        CLEAR     54  12  18 NW5       29.99R
SAFFORD        CLEAR     60   4  10 N5        29.87R
$$

AZZ020-021-025-026-031-170900-
SOUTHWEST ARIZONA

CITY           SKY/WX    TMP DP  RH WIND       PRES   REMARKS
YUMA           CLEAR     71  41  33 S14       29.76R
$$

CAZ031-033-041-043-047-048-061-170900-
SOUTHERN CALIFORNIA

CITY           SKY/WX    TMP DP  RH WIND       PRES   REMARKS
DOWNTOWN L.A.  MOCLDY    59  53  80 E3        29.87R
L.A. AIRPORT   PTCLDY    59  52  77 E5        29.87S
SAN DIEGO      CLOUDY    61  52  72 S7        29.90S
BURBANK        CLEAR     59  52  77 E8        29.87R
ONTARIO        CLEAR     58  52  80 W3        29.88R
RIVERSIDE      CLEAR     58  52  80 NW3       29.88R
PALM SPRINGS   CLEAR     71  45  39 S3        29.78R
IMPERIAL       CLEAR     68  52  56 SE8       29.73R
BLYTHE         CLEAR     77  18  11 S9        29.75S
NEEDLES        CLEAR     79  19  10 W3        29.74R
$$

NVZ020-UTZ003-170900-
SOUTHERN NEVADA-UTAH

CITY           SKY/WX    TMP DP  RH WIND       PRES   REMARKS
LAS VEGAS      PTCLDY    69  21  16 SW10      29.77R
SALT LAKE CITY PTCLDY    41  18  39 SE7       30.02F
$$

NMZ009-TXZ055-170900-
NEW MEXICO-WEST TEXAS

CITY           SKY/WX    TMP DP  RH WIND       PRES   REMARKS
ALBUQUERQUE    MOCLDY    56  26  31 E9        30.00S
EL PASO        CLOUDY    67   1   7 W14       29.87S
$$


........................KEY........................
SKY/WX - SKY CONDITION/WEATHER
TMP    - TEMPERATURE IN FAHRENHEIT
DP     - DEW POINT IN FAHRENHEIT
RH     - RELATIVE HUMIDITY IN PERCENT
WIND   - DIRECTION AND SPEED IN MILES PER HOUR (MPH)
VRB    - VARIABLE WIND DIRECTION
PRES   - MEAN SEA LEVEL PRESSURE IN INCHES OF MERCURY
         F - FALLING PRESSURE   R - RISING PRESSURE
         S - STEADY PRESSURE
VSB    - VISIBILITY IN MILES
HX     - HEAT INDEX IN FAHRENHEIT
WCI    - WIND CHILL INDEX IN FAHRENHEIT
TC     - TEMPERATURE IN CELSIUS WHICH IS ALSO KNOWN AS
         TEMPERATURE IN CENTIGRADE
AFB    - AIR FORCE BASE
         LUKE AFB IS LUKE AIR FORCE BASE
         DAVIS-MONTHAN IS DAVIS-MONTHAN AIR FORCE BASE
NAS    - NAVAL AIR STATION
         EL CENTRO NAS IS EL CENTRO NAVAL AIR STATION
N/A    - NOT AVAILABLE



USA.gov is the U.S. government's official web portal to all federal, state and local government web resources and services.